Overview Statistics Trail Chart Weather Telemetry Raw packets
 

This is the latest recevied weather packets stored in our database for station/object DO1BDB-12. If no packets are shown the sender has not sent any weather packets the latest 10 day(s).

<< 393 394 395 396 397 398 399 >>
Time Temp. Humidity Pressure Rain* Wind** Luminosity Snow
1787996059 23.89° C 60% 101 hPa - - - -
1787995993 23.89° C 57% 101 hPa - - - -
1787995927 23.89° C 59% 101 hPa - - - -
1787995861 21.67° C 64% 101 hPa - - - -
1787995795 22.22° C 63% 101 hPa - - - -
1787995729 22.22° C 64% 101 hPa - - - -
1787995664 21.67° C 65% 101 hPa - - - -
1787995598 22.78° C 61% 101 hPa - - - -
1787995532 24.44° C 59% 101 hPa - - - -
1787995466 23.33° C 63% 101 hPa - - - -
1787995400 22.22° C 65% 101 hPa - - - -
1787995334 21.67° C 66% 101 hPa - - - -
1787995269 21.11° C 69% 101 hPa - - - -
1787995203 20.56° C 69% 101 hPa - - - -
1787995137 20.56° C 70% 101 hPa - - - -
1787995071 20° C 71% 101 hPa - - - -
1787995005 20.56° C 72% 101 hPa - - - -
1787994939 20° C 71% 101 hPa - - - -
1787994873 20.56° C 71% 101 hPa - - - -
1787994808 20.56° C 72% 101 hPa - - - -
1787994742 20.56° C 71% 101 hPa - - - -
1787994676 20° C 72% 101 hPa - - - -
1787994610 19.44° C 73% 101 hPa - - - -
1787994544 19.44° C 73% 101 hPa - - - -
1787994478 19.44° C 73% 101 hPa - - - -

* Rain since midnight (hover to see other rain measurements)
** Current wind speed in m/s (hover to see current wind gust speed)